Погода в Чардаре

Погода в Чардаре : погода сейчас, прогноз погоды и архив. Всё, что Вы хотите узнать о погоде в Чардаре!

Хотите узнать прогноз погоды в Чардаре? Тогда Вам сюда: Погода в Чардаре

Поиск расширенной информации на нашем сайте:

Другие новости

Новости СМИ2

Главная страница сайта

Новости сайта

03.07.2017

Напоминаем, что на нашем специализированном сайте Метеоцентр.Азия вы можете получить высокодетализированные автоматические прогнозы погоды по пунктам России, СНГ и мира в авиационном формате (включающие направление и скорость ветра, видимость, явления погоды, количество и форму облачности, нижнюю и верхнюю границу облачности).


Погода в Чардаре - сегодня

Время (UTC), дата Ветер
(°,м/с) 
Видим.   Явления Облачность Т
(°С)
Тd
(°С)
f(%) Тe
(°С)
Pmin
(гПа)
dP
(гПа)
Po
(мм)
O2
(г/м3)
Тmin Tmax R s Состояние
почвы
18 15.06.18 120 (ЮВ) 20000 м    ясно 
+21.6 +17.1 76 +35  1012  0.9  735  271    +31.8  0.0     
21 15.06.18 010 (С) 20000 м    ясно 
+19.8 +14.5 71 +29  1053.2  -0.5  735  273           
00 16.06.18 330 (СЗ) 10 км    ясно 
+16 +14.3 90 +25  1011.5  -0.6  735  277           
06 16.06.18 020 (С) 20000 м    ясно 
+27.5 +14.5 45 +36  1009.7  -0.8  734  266  +15.8         
09 16.06.18 180 (Ю) 20000 м    ясно 
+28.4 +17.1 50 +42  1007.6  -1.9  733  264           
12 16.06.18 150 (ЮВ) 20000 м    ясно 
+28.8 +17.6 51 +43  1006.2  -1.3  732  263           
15 16.06.18 110 (В) 20000 м    ясно 
+28 +13.3 40 +34  1005.3  -1  731  265    +29.5       
18 16.06.18 180 (Ю) 20000 м    ясно 
+25.4 +13.7 48 +33  1005  -0.5  731  267    +29.5       
21 16.06.18 020 (С) 20000 м    ясно 
+22 +11.4 51 +26  1003.5  -1.9  729  270           
00 17.06.18 110 (В) 20000 м    ясно 
+20.6 +11.3 55 +24  1003.5  -0.1  729  271           
06 17.06.18 150 (ЮВ) 20000 м    1/1 600 м 
[Cu hum]
+28.1 +16.1 48 +40  1002.6  -0.4  729  263  +20.5         
09 17.06.18 160 (Ю) 20000 м    1/0 верхняя 
[Ci fib]
+30.4 +16.6 43 +43  1001.3  -1  728  261           
12 17.06.18 170 (Ю) 20000 м    1/1 600 м кучево-дожд. 
[Cb calv]
+30.6 +13.5 35 +38  1000.3  -1  728  261           
15 17.06.18 130 (ЮВ) 20000 м    1/1 600 м кучево-дожд. 
[Cb calv]
+29.3 +13.4 38 +36  1000.6  0.1  728  262    +33.5       
18 17.06.18 210 (ЮЗ) 20000 м    ясно 
+27.2 +14.4 45 +36  1001.4  0.6  728  264    +33.5       
21 17.06.18 150 (ЮВ) 20000 м    ясно 
+25.8 +14 48 +34  1001.1  -0.4  728  265           
00 18.06.18 120 (ЮВ) 20000 м    ясно 
+23.7 +19.2 76 +42  1001  -0.3  728  265           
06 18.06.18 130 (ЮВ) 20000 м    1/0 верхняя 
[Ci fib]
+29.9 +18 49 +45  1001.1  -0.3  728  260  +23.4         
09 18.06.18 120 (ЮВ) 20000 м    1/0 верхняя 
[Ci fib]
+33.6 +10.5 24 +36  999.7  -1  727  259           
12 18.06.18 140 (ЮВ) 20000 м    3/0 верхняя 
[Ci fib]
+33.2 +11.4 26 +37  999  -0.7  727  259           
15 18.06.18 160 (Ю) 20000 м    5/0 средняя, верхняя 
[Ac As|Ci fib]
+29.4 +19.4 55 +48  999.3  727  260    +35.8       
18 18.06.18 170 (Ю) 20000 м    ясно 
+27.8 +15.2 46 +38  999.6  0.1  727  263    +35.8       
21 18.06.18 040 (СВ) 20000 м    ясно 
+28 +8 28 +28  999.6  -0.1  727  264           
00 19.06.18 120 (ЮВ) 20000 м    1/0 верхняя 
[Ci fib]
+25.1 +17 61 +38  999.4  -0.4  727  264           
06 19.06.18 140 (ЮВ) 20000 м    5/0 верхняя 
[Ci sp]
+31.6 +14.1 35 +40  1000.2  0.5  728  260  +25         
Время (UTC), дата Ветер
(°,м/с) 
Видим.   Явления Облачность Т
(°С)
Тd
(°С)
f(%) Тe
(°С)
Pmin
(гПа)
dP
(гПа)
Po
(мм)
O2
(г/м3)
Тmin Tmax R s Состояние
почвы

Для получения пояснительной информации подведите курсор к названию столбца.

ПОГОДА в Чардаре - архив

Всё, что Вы хотите узнать о погоде в Чардаре - удобно и подробно!

Выберите нужную дату (начиная с 1 января 2015* года) и нажмите кнопку "Найти".
Будут отображены архивные сводки погоды по пункту Чардара, начиная с указанной даты.


Отображать данные в формате CSV (для использования в таблицах Excel)


Внимание! Наш архив погоды предназначен исключительно для личного некоммерческого использования в познавательных целях. Если Вам необходимы официальные справки о состоянии погоды (для производственных, юридических, коммерческих и т.п. целей), обращайтесь в органы Росгидромета.

*Примечание: данная дата относится к архиву по метеостанциям СССР (Россия, СНГ, Балтия).
Архив по метеостанциям Зарубежной Европы и Азии (кроме Китая) хранится 10 дней, по другим регионам земного шара (Китай, Африка, Америка, Австралия, Океания) - 1 день.

Чардара - район местоположения метеостанции


Название, широта, долгота, высота метеостанции:
Чардара 41.4°ш. 68°д. 275 м над ур. моря [Казахстан]

Дополнительная информация

В oтличие oт бoльшинства пoгoдных сайтoв мы публикуем пoдрoбную метеoинфoрмацию в детальнoм прoфессиoнальнoм фoрмате.

Характеристики температуры и влажнoсти вoздуха измеряются на высoте 2 м в тени вдали oт зданий и деревьев.
Скoрoсть ветра измеряется на высoте 10 м (на урoвне рoста челoвека скoрoсть ветра ниже в 1.5-2 раза). Если метеoстанция нахoдится в гoрoде или в лесу, тo скoрoсть ветра занижена на 2-4 м/с пo сравнению с oткрытым местoм. Скoрoсть ветра над акватoриями крупных рек и oзёр, а также на вершинах хoлмoв на 2-5 м/с выше, чем в oбычных услoвиях.
Атмoсфернoе давление в разных тoчках местнoсти мoжет значительнo oтличаться oт давления на метеoстанции, в зависимoсти oт услoвий рельефа (при пoдъёме на 10 м давление пoнижается примернo на 1 мм рт.ст.).